Location: Gleizolles
(44.4833°N, 6.7667°E)
Time: 20:26:34
(UTC+00:00)

Tiros 1 despin weight - Pass Details

Date: 29 June 2024
Orbit: 576 x 620 km, 48.2° (Epoch: 19 July)

Event Time Altitude Azimuth Distance (km) Brightness Sun altitude
Rises 09:05:01 0° 230° (SW) 2,858 ? 52.5°
Reaches altitude 10° 09:07:20 10° 226° (SW) 1,963 ? 52.9°
Maximum altitude 09:11:45 55° 149° (SSE) 746 ? 53.6°
Drops below altitude 10° 09:16:12 10° 73° (ENE) 1,987 ? 54.3°
Sets 09:18:34 0° 69° (ENE) 2,897 ? 54.7°
